SCP
0 0 0 0 0 0 0 0 0 0 0 0 0 0 0 0 0 0 0 0 0 0 0 0 0 0 0 0 0 0 0 0 0 0 0 0 0 0 0 0 0 0 0 0 0 0 0 0 0 0 0 0 0 0
0 0 0 0 0 0 0 0 0 0 0 0 0 0 0 0 0 0 0 0 0 0 0 0 0 0 0 0 0 0 0 0 0 0 0 0 0 0 0 0 0 0 0 0 0 0 0 -0 0 0 -0 -0 -0 0
0 0 0 0 0 0 0 0 0 0 0 0 0 0 0 0 0 0 0 0 0 0 0 0 0 0 0 0 0 0 0 0 0 0 0 0 0 0 0 0 0 0 0 0 0 0 -0 0 0 0 -0 -0 -0 -0
0 0 0 0 0 0 0 0 0 0 0 0 0 0 0 0 0 0 0 0 0 0 0 0 0 0 0 0 0 0 0 0 0 0 0 0 0 0 0 0 0 0 0 0 0 0 -0 0 -0 -0 -0 -0 -0 -0
0 0 0 0 0 0 0 0 0 0 0 0 0 0 0 0 0 0 0 0 0 0 0 0 0 0 0 0 0 0 0 0 0 0 0 0 0 0 0 0 0 0 0 0 0 0 0 0 0 0 -0 -0 0 0
0 0 0 0 0 0 0 0 0 0 0 0 0 0 0 0 0 0 0 0 0 0 0 0 0 0 0 0 0 0 0 0 0 0 0 0 0 0 0 0 0 0 0 0 0 0 0 -0 0 0 -0 -0 0 0
0 0 0 0 0 0 0 0 0 0 0 0 0 0 0 0 0 0 0 0 0 0 0 0 0 0 0 0 0 0 0 0 0 0 0 0 0 0 0 0 0 0 0 0 0 0 0 0 0 0 -0 -0 0 0
0 0 0 0 0 0 0 0 0 0 0 0 0 0 0 0 0 0 0 0 0 0 0 0 0 0 0 0 0 0 0 0 0 0 0 0 0 0 0 0 0 0 0 0 0 0 0 0 0 0 -0 -0 0 0
0 0 0 0 0 -0 0 0 0 0 0 0 0 0 0 0 0 0 0 0 0 0 0 0 0 0 0 0 0 0 0 0 0 0 0 0 0 0 0 0 0 0 0 0 0 0 0 0 0 0 0 -0 0 0
0 0 -0 0 0 -0 0 0 0 0 0 0 0 0 0 0 0 0 0 0 0 0 0 0 0 0 0 0 0 0 0 0 0 0 0 0 0 0 0 0 0 0 0 0 0 0 0 0 0 0 0 -0 -0 -0
-0 0 0 0 0 0 0 0 -0 0 0 0 0 0 0 0 0 0 0 0 0 0 0 0 0 0 0 0 0 0 0 0 0 0 0 0 0 0 0 0 0 0 0 0 0 0 0 0 0 0 0 -0 -0 -0
0 0 0 0 0 0 0 -0 0 0 0 0 0 0 0 0 0 0 0 0 0 0 0 0 0 0 0 0 0 0 0 0 0 0 0 0 0 0 0 0 0 0 0 0 0 -0 -0 -0 -0 -0 -0 -0 -0 -0
0 0 0 0 0 0 0 0 0 0 0 0 0 0 0 0 0 0 0 0 0 0 0 0 0 0 0 0 0 0 0 0 0 0 0 0 0 0 0 0 0 0 0 -0 -0 -0 -0 -0 -0 -0 -0 -0 -0 -0
0 0 0 0 -0 -0 0 -0 0 0 0 0 0 0 0 0 0 0 0 0 0 0 0 0 0 0 0 0 0 0 0 0 0 0 0 0 0 0 0 0 0 0 0 -0 -0 -0 -0 -0 -0 -0 -0 -0 -0 -0
0 0 0 0 -0 0 0 0 0 0 0 0 0 0 0 0 0 0 0 0 0 0 0 0 0 0 0 0 0 0 0 0 0 0 0 0 0 0 0 0 0 -0 -0 -0 -0 -0 -0 -0 -0 -0 -0 -0 -0 -0
0 0 0 0 0 0 0 0 0 0 0 0 0 0 0 0 0 0 0 0 0 0 0 0 0 0 0 0 0 0 0 0 0 0 0 0 0 -0 -0 -0 -0 -0 -0 -0 -0 -0 -0 -0 -0 -0 -0 -0 -0 -0
0 0 0 0 0 0 0 0 0 0 0 0 0 0 0 0 0 0 0 0 0 0 0 0 0 0 0 0 0 0 0 0 0 0 0 0 0 -0 -0 -0 -0 -0 -0 -0 -0 -0 -0 -0 -0 -0 -0 -0 -0 -0
0 0 0 0 0 0 0 0 0 0 0 0 0 0 0 0 0 0 0 0 0 0 0 0 0 0 0 0 0 0 0 0 0 0 0 0 0 0 0 -0 -0 -0 -0 -0 -0 -0 -0 -0 -0 -0 -0 -0 -0 -0
0 0 0 0 0 0 0 0 0 0 0 0 0 0 0 0 0 0 0 0 0 0 0 0 0 0 0 0 0 0 0 0 0 0 0 0 0 0 0 0 0 0 0 0 0 0 -0 -0 -0 -0 -0 -0 -0 -0
0 0 0 0 0 0 0 0 0 0 0 0 0 0 0 0 0 0 0 0 0 0 0 0 0 0 0 0 0 0 0 0 0 0 0 0 0 0 0 0 0 0 0 0 0 0 0 0 0 -0 -0 -0 0 -0
0 0 0 0 0 0 0 0 0 0 0 0 0 0 0 0 0 0 0 0 0 0 0 0 0 0 0 0 0 0 0 0 0 0 0 0 0 0 0 0 0 0 0 0 0 0 0 0 0 0 0 0 0 0
0 0 0 0 0 0 0 0 0 0 0 0 0 0 0 0 0 0 0 0 0 0 0 0 0 0 0 0 0 0 0 0 0 0 0 0 0 0 0 0 0 0 0 0 0 0 0 0 0 0 0 0 0 0
0 0 0 0 0 0 0 0 0 0 0 0 0 0 0 0 0 0 0 0 0 0 0 0 0 0 0 0 0 0 0 0 0 0 0 0 0 0 0 0 0 0 0 0 0 0 0 0 0 0 0 0 0 0
0 0 0 0 0 0 0 0 0 0 0 0 0 0 0 0 0 0 0 0 0 0 0 0 0 0 0 0 0 0 0 0 0 0 0 0 0 0 0 0 0 0 0 0 0 0 0 0 0 0 0 0 0 0
0 0 0 0 0 0 0 0 0 0 0 0 0 0 0 0 0 0 0 0 0 0 0 0 0 0 0 0 0 0 0 0 0 0 0 0 0 0 0 0 0 0 0 0 0 0 0 0 0 0 0 0 0 0
0 0 0 0 0 0 0 0 0 0 0 0 0 0 0 0 0 0 0 0 0 0 0 0 0 0 0 0 -0 -0 -0 0 0 -0 0 0 0 0 0 0 0 0 0 0 0 0 0 0 0 0 0 0 0 0
0 0 0 0 0 0 0 0 0 0 0 0 0 0 0 0 0 0 0 0 0 0 0 0 0 0 0 -0 0 0 0 0 0 0 0 0 0 0 0 -0 -0 0 -0 0 0 0 0 0 0 0 0 0 0 0
0 0 0 0 0 0 0 0 0 0 0 0 0 0 0 0 0 0 0 0 0 0 0 0 0 0 0 -0 0 0 0 0 0 0 0 0 0 0 -0 -0 -0 0 -0 0 0 0 0 0 0 0 0 0 0 0
0 0 0 0 0 0 0 0 0 0 0 0 0 0 0 0 0 0 0 0 0 0 0 0 -0 0 0 0 -0 0 0 0 0 0 -0 -0 -0 -0 0 0 0 0 0 -0 -0 0 0 0 0 0 0 0 0 0
0 0 0 0 0 0 0 0 0 0 0 0 0 0 0 0 0 0 0 0 0 0 -0 -0 -0 -0 -0 -0 -0 -0 0 0 0 0 -0 -0 -0 0 0 0 0 0 0 0 0 0 0 0 0 0 0 0 0 0
0 0 0 0 0 0 0 0 0 0 0 0 0 0 0 0 0 0 0 0 0 0 -0 -0 -0 -0 -0 -0 -0 -0 -0 -0 0 -0 -0 -0 0 0 0 0 0 0 0 0 0 0 0 0 0 0 0 0 0 0
0 0 0 0 0 0 0 0 0 0 0 0 0 0 0 0 0 0 0 0 0 0 -0 -0 -0 -0 -0 -0 -0 -0 0 -0 -0 -0 -0 0 0 0 0 0 0 0 0 0 0 0 0 0 0 -0 -0 0 0 0
0 0 0 0 0 0 0 0 0 0 0 0 0 0 0 0 -0 -0 0 0 -0 -0 -0 -0 -0 -0 -0 -0 0 -0 -0 -0 -0 -0 -0 -0 0 0 0 0 0 0 0 0 0 0 -0 -0 -0 0 0 0 0 0
Wind_Speed_500mb
53 49 55 55 52 44 51 50 48 45 44 50 47 38 31 28 33 33 29 22 19 2 12 11 9 7 13 14 7 14 8 3 3 4 5 5 4 5 3 4 9 11 10 6 1 3 8 7 5 4 8 34 50 53
61 52 49 60 51 49 49 53 50 50 54 56 58 49 35 29 27 30 32 27 17 8 5 11 9 14 18 19 16 27 4 9 8 5 2 2 3 3 5 5 4 5 8 4 13 9 5 15 23 32 29 45 47 57
62 59 55 51 59 50 49 50 52 50 54 58 64 55 44 33 27 26 28 31 23 11 8 12 13 17 14 16 17 13 8 8 9 4 7 3 5 2 5 8 2 6 6 4 6 4 20 56 18 23 48 51 46 50
64 61 59 56 54 60 51 49 52 51 59 62 50 56 49 40 32 22 19 22 33 11 9 5 13 17 19 23 22 19 10 10 14 6 3 4 4 11 4 1 3 3 5 5 11 12 49 12 44 62 60 53 58 59
64 62 62 56 55 57 57 51 54 58 58 55 58 65 57 48 36 26 18 17 26 10 7 8 9 9 10 16 21 30 25 23 6 5 2 5 5 4 2 2 5 4 3 3 6 23 11 50 63 55 53 59 53 61
61 62 59 58 51 58 52 57 54 56 62 58 59 59 53 55 42 33 11 20 24 19 5 2 5 4 12 11 14 17 22 25 14 11 8 7 4 2 4 5 10 7 9 9 13 37 50 38 41 38 52 51 52 52
56 57 58 57 54 59 56 62 55 66 59 55 55 58 55 42 40 28 10 6 31 20 5 5 4 6 14 14 11 12 17 9 9 7 7 5 5 8 4 6 11 16 18 7 13 39 15 27 37 51 50 50 47 45
52 54 54 53 53 56 55 63 57 84 64 60 58 51 50 45 38 29 20 5 24 20 5 6 2 4 14 8 8 10 10 9 9 2 3 5 4 3 5 9 7 13 15 5 26 25 29 39 46 51 50 56 59 58
46 51 49 43 48 55 47 46 67 74 75 71 63 53 47 40 26 20 21 16 27 8 5 5 9 6 16 7 9 6 6 2 3 2 4 5 2 7 10 11 1 9 12 24 31 28 33 43 52 57 58 58 62 68
34 40 38 37 34 47 25 62 93 94 82 76 70 24 11 24 22 28 21 16 15 7 7 5 13 6 16 8 5 8 6 4 2 6 5 3 6 10 16 8 3 4 11 21 36 51 54 59 59 63 60 56 57 61
30 34 33 32 31 38 38 86 103 103 87 63 16 9 30 46 36 10 12 9 8 3 10 10 15 10 21 7 6 7 5 2 4 7 7 4 6 10 25 15 7 6 10 16 23 29 34 42 55 62 65 59 58 59
34 26 30 31 31 43 91 96 92 80 44 32 29 44 42 14 6 7 4 3 3 10 12 14 11 7 14 10 10 9 6 3 6 2 5 5 7 33 29 18 9 4 10 15 22 28 33 39 45 51 57 61 58 55
27 33 36 36 53 84 94 89 75 60 58 69 17 12 10 4 5 10 10 6 3 11 19 14 6 11 10 6 11 5 6 8 5 4 7 7 13 39 26 17 8 3 11 18 22 27 34 41 45 50 56 57 56 52
35 29 37 44 89 93 84 71 66 74 35 9 8 8 6 2 7 8 9 9 9 10 37 32 13 7 7 5 4 8 5 5 5 1 10 5 43 37 25 15 8 6 10 17 24 31 37 42 47 50 52 56 58 56
38 40 89 86 90 88 70 65 57 38 10 9 8 7 5 3 4 5 11 8 8 30 39 20 12 6 2 6 1 8 7 6 9 9 6 35 30 28 31 31 24 18 16 18 23 28 36 44 49 51 54 56 56 51
59 76 85 79 71 62 62 56 43 21 9 7 7 9 7 5 1 8 20 14 25 44 22 6 5 6 2 7 7 12 13 11 7 7 44 32 19 14 14 14 13 16 21 22 27 32 38 42 47 52 54 53 52 49
72 63 63 62 61 53 53 47 23 9 6 6 3 7 12 2 7 10 18 20 44 36 5 8 8 11 5 5 4 6 9 7 12 33 40 21 17 17 17 19 18 20 21 25 33 38 44 49 51 53 52 49 47 45
62 52 51 50 48 46 40 15 10 6 4 5 7 14 23 3 14 20 22 36 33 16 15 8 16 5 10 12 7 8 25 17 15 19 20 25 30 26 26 32 36 35 36 38 40 42 46 50 52 51 50 47 43 39
43 46 44 49 46 27 9 7 7 5 2 5 6 24 16 6 10 15 24 45 14 16 16 11 7 5 7 16 18 14 16 27 33 39 46 46 48 50 51 53 50 47 49 47 46 47 48 49 51 50 47 43 37 33
35 41 41 40 32 9 8 8 9 6 6 6 6 16 10 7 15 18 21 42 18 13 3 1 9 13 13 17 21 38 48 51 53 59 68 68 65 63 58 50 51 54 53 56 55 52 51 50 48 46 44 39 33 27
41 40 32 39 23 9 7 9 7 6 11 6 16 14 6 16 14 14 23 30 14 8 6 23 35 49 50 53 56 61 65 66 65 64 66 67 63 61 60 58 54 56 61 62 60 55 50 47 44 43 39 32 27 22
35 37 34 18 6 7 7 6 10 13 5 11 13 9 6 5 7 9 15 13 12 35 44 60 65 65 66 68 68 65 62 62 63 65 69 70 69 64 60 59 59 62 64 65 63 57 49 47 44 39 33 27 21 16
30 16 8 6 6 4 6 12 4 7 5 5 8 3 3 5 7 16 8 15 27 61 65 69 72 70 70 69 67 61 57 61 67 71 74 75 72 65 64 64 63 65 68 69 63 58 51 46 42 35 29 25 20 18
18 11 5 4 5 6 13 5 6 8 8 5 5 2 5 6 13 3 6 11 42 48 52 53 49 50 52 52 51 39 45 57 65 66 63 64 65 73 76 78 74 72 68 65 61 53 47 44 37 32 29 26 26 25
11 9 7 1 8 8 6 3 5 5 5 5 5 6 4 7 5 6 7 15 43 51 49 44 44 44 46 46 42 41 54 60 60 64 67 62 70 78 76 63 54 48 43 48 47 43 42 39 35 33 32 31 33 33
9 17 16 18 5 10 11 9 11 12 8 5 10 3 6 5 5 11 7 28 36 27 21 24 29 32 33 35 44 52 56 57 57 62 63 59 54 47 46 41 36 31 26 32 33 35 36 38 38 36 36 37 36 37
9 12 14 14 13 17 7 6 9 6 9 11 8 7 6 5 11 10 26 36 35 30 23 25 29 35 42 47 50 53 55 54 54 54 52 43 35 32 32 32 29 23 18 19 25 28 33 37 38 39 42 42 39 38
13 33 17 28 14 14 11 6 10 15 9 15 25 10 18 18 13 15 21 20 24 29 34 41 42 44 46 47 51 50 48 47 45 41 31 23 22 21 18 15 13 11 9 15 20 24 28 33 39 44 46 47 47 43
17 27 35 9 8 11 22 15 15 21 21 34 12 10 12 24 48 46 44 43 46 47 50 48 49 49 53 51 48 43 40 36 32 23 16 17 18 13 7 3 5 9 16 22 22 24 28 35 42 46 49 50 50 48
18 43 14 14 15 15 26 35 19 34 41 37 33 28 36 53 51 50 52 57 59 59 54 55 58 59 52 47 40 35 31 26 21 15 9 11 12 9 4 6 10 17 23 30 38 41 40 45 51 54 55 54 52 50
25 36 10 14 10 22 32 40 32 25 33 34 46 43 54 40 57 62 61 63 61 57 57 60 60 53 43 36 29 25 18 15 13 12 7 8 6 6 10 15 19 23 28 33 42 48 54 57 58 58 56 55 53 49
19 21 9 11 6 8 17 21 18 18 17 19 19 28 24 19 24 44 55 50 53 57 53 50 48 36 29 25 20 15 12 7 12 9 5 4 9 14 18 23 28 33 39 45 50 54 56 59 60 57 57 56 53 48
6 8 6 3 5 8 14 14 14 5 11 11 17 21 26 18 20 28 49 49 48 47 43 35 27 24 18 16 14 13 12 10 10 9 13 20 21 26 31 35 39 43 47 53 55 56 56 57 58 57 55 53 48 42
Wind_Direction_500mb
266 270 250 254 255 262 244 243 232 232 229 221 221 218 212 214 208 214 233 236 216 168 167 192 209 164 155 174 150 142 113 198 114 177 179 187 218 207 242 195 179 172 152 208 85 241 301 194 127 7 292 330 334 329
265 260 267 245 253 251 249 239 234 233 229 228 213 212 210 210 208 212 223 224 202 210 153 189 187 199 190 172 143 162 144 166 162 103 191 157 215 182 142 283 199 254 187 208 188 222 47 339 281 327 342 324 323 319
260 254 252 256 244 251 252 238 235 233 224 227 206 204 204 204 205 207 217 214 204 215 231 218 206 214 183 175 179 134 178 168 168 134 133 178 219 239 219 240 284 278 190 221 4 281 339 320 334 345 338 329 326 322
255 253 245 247 248 241 249 244 229 224 226 223 208 203 202 203 206 202 208 208 201 181 194 196 222 232 229 218 209 206 187 160 151 130 139 145 185 186 225 196 313 297 307 287 278 316 334 109 329 324 324 321 321 323
252 248 244 241 243 234 246 241 222 224 218 199 204 197 197 198 202 196 188 191 189 197 165 146 161 215 257 248 218 213 201 200 176 132 146 250 232 117 14 216 228 334 71 13 267 323 291 290 313 326 320 326 329 328
244 240 240 236 235 229 234 232 222 218 215 197 205 194 192 189 190 186 189 218 206 203 198 94 160 27 113 114 147 141 195 211 212 173 207 233 252 212 117 230 191 338 309 270 266 306 307 317 328 332 333 329 322 322
234 236 231 229 228 227 232 229 221 212 198 189 184 189 191 183 183 175 164 187 198 185 213 77 42 134 129 121 127 165 172 184 193 193 220 213 210 208 158 212 221 313 333 326 333 332 334 336 327 341 345 343 337 337
226 226 225 223 226 223 227 218 217 190 190 181 170 167 170 177 189 204 189 81 173 179 222 108 282 165 165 141 122 144 157 174 184 241 218 203 200 305 247 218 283 337 352 119 345 342 321 331 346 355 354 353 353 351
216 218 213 221 213 222 235 217 195 173 165 161 156 156 158 162 171 193 200 187 174 176 181 132 137 203 160 128 119 128 142 99 218 168 235 172 284 226 201 180 6 354 350 328 350 354 352 351 351 356 355 355 352 349
202 196 202 208 200 223 216 202 176 159 149 147 147 137 138 156 159 159 146 161 167 218 221 157 133 135 165 141 97 131 163 173 171 250 157 141 248 231 180 159 135 23 3 349 348 359 355 357 353 353 353 353 349 346
194 189 200 194 205 227 182 150 146 141 145 142 124 106 137 150 144 146 139 148 165 350 207 187 182 146 187 133 177 189 164 164 195 259 141 280 278 212 178 173 155 74 31 11 0 358 356 350 348 348 351 350 350 348
188 194 190 186 189 170 154 149 152 153 148 135 129 129 134 180 109 103 81 53 108 215 191 165 182 124 155 157 112 172 148 138 233 167 84 270 251 169 173 173 164 79 22 12 0 1 2 1 357 353 350 347 348 347
203 194 193 180 175 160 151 151 153 145 138 129 113 129 149 64 109 163 188 279 295 194 176 159 132 156 135 142 87 103 96 211 124 71 227 231 166 169 170 179 180 42 15 7 2 1 2 2 1 358 355 350 346 346
177 176 161 170 159 153 152 146 141 137 137 108 122 98 124 161 252 185 184 187 183 163 153 146 117 138 127 93 137 108 230 83 58 251 235 226 181 187 191 204 226 279 328 350 359 1 1 359 359 358 354 351 346 345
173 163 161 147 146 149 147 150 155 155 85 94 106 150 179 166 146 144 169 139 130 155 151 114 86 111 71 95 75 91 42 247 209 227 220 165 168 189 213 232 252 279 301 327 342 350 355 355 353 352 350 349 346 342
129 129 134 134 140 144 150 153 156 148 63 79 95 94 101 76 84 178 170 151 149 155 141 119 112 83 191 146 146 204 138 220 252 215 162 155 162 186 210 231 264 280 290 314 335 342 345 347 347 346 345 345 341 339
118 120 132 133 141 141 148 147 118 70 76 105 91 166 150 154 173 158 164 166 159 163 173 129 131 205 97 87 223 201 198 218 125 143 173 201 260 270 279 262 281 297 299 313 329 334 337 337 338 337 337 338 337 335
118 127 142 153 150 141 134 110 84 92 107 158 154 179 188 146 163 161 168 165 165 199 157 194 134 132 178 160 243 230 223 214 254 271 242 252 290 304 294 308 308 303 303 311 314 317 320 323 326 328 328 330 330 328
143 146 154 156 155 123 87 81 82 96 142 198 194 162 173 166 181 179 177 179 172 173 153 155 87 172 219 211 209 205 270 295 304 313 310 308 306 306 306 303 302 297 299 300 299 301 306 311 314 317 318 320 320 317
143 160 166 163 154 90 90 103 142 158 170 173 158 157 147 155 163 169 173 182 183 166 130 203 212 219 221 254 286 294 300 301 300 300 302 304 303 304 303 300 294 294 292 290 292 292 297 298 302 306 308 310 310 304
118 137 156 176 146 91 110 142 140 116 132 121 141 144 118 140 148 161 172 174 188 215 230 233 252 263 269 278 283 284 285 288 292 294 293 294 297 296 294 293 293 291 289 290 291 291 288 293 297 297 295 296 294 285
130 121 122 128 123 121 107 122 125 124 124 139 136 134 140 170 166 167 171 182 230 240 240 250 258 267 274 279 287 291 294 298 296 297 299 296 291 289 289 289 285 283 281 281 282 281 282 286 286 284 280 277 270 259
148 145 146 137 121 90 115 132 118 117 120 167 151 119 223 194 179 159 207 223 240 246 251 257 265 272 276 283 288 292 293 292 293 294 290 287 281 278 281 286 287 284 281 278 276 277 276 274 270 264 257 249 236 213
171 175 175 127 103 148 146 149 137 122 122 115 120 254 272 171 152 151 251 246 244 255 260 267 274 277 278 279 279 290 295 294 294 293 290 284 282 285 293 293 289 282 274 271 265 262 258 252 248 240 232 222 206 190
155 194 188 291 144 110 83 55 11 72 152 175 130 273 262 144 154 203 237 262 261 272 284 280 280 282 277 280 280 287 291 291 291 292 293 296 300 297 296 295 289 281 263 249 245 242 238 230 225 218 210 200 193 178
184 190 182 191 175 159 180 150 186 188 141 158 221 145 121 127 156 235 228 251 275 290 296 301 301 297 290 288 290 291 292 293 292 294 300 303 300 295 297 298 294 290 276 250 236 229 220 213 207 198 191 185 181 173
199 225 175 176 167 142 95 99 143 137 167 186 180 154 118 163 236 244 238 259 269 272 275 278 289 291 287 286 288 291 294 295 296 299 304 302 299 293 289 290 290 297 282 247 223 214 210 200 191 184 177 170 168 165
207 182 166 175 165 169 137 156 168 192 202 177 136 175 179 195 226 223 255 266 268 277 283 291 291 288 284 284 289 292 296 299 299 303 303 304 311 310 301 287 270 261 230 197 191 187 189 187 176 170 167 160 154 152
180 171 155 139 145 195 201 182 200 215 191 173 173 195 222 222 246 259 273 279 281 281 282 286 290 288 284 287 290 295 298 296 300 293 301 311 322 318 304 259 201 178 166 162 157 159 160 165 163 159 154 150 146 144
188 170 153 161 164 205 214 200 217 210 199 205 219 234 246 251 255 263 270 274 276 281 285 284 284 282 284 286 290 292 290 292 276 261 281 320 327 309 237 177 166 157 155 156 153 151 150 150 149 150 148 146 144 142
163 179 155 177 224 214 216 215 216 211 210 222 229 236 247 261 264 269 272 273 274 276 276 276 276 278 280 282 282 278 276 271 231 229 267 305 308 190 170 157 155 152 149 149 145 144 146 148 146 145 144 141 139 138
174 182 185 201 233 202 192 191 197 204 218 227 235 233 244 255 266 276 272 273 273 272 274 275 276 277 271 265 257 252 247 198 200 226 251 232 166 150 145 144 142 143 144 144 143 143 144 143 141 141 141 139 135 133
174 193 195 178 157 180 182 174 187 221 229 229 224 222 224 232 243 266 270 269 270 275 275 272 261 249 238 218 206 202 181 176 173 166 147 137 136 138 137 136 138 140 141 139 137 138 140 140 140 139 137 135 133 131
Wind_Speed_850mb
53 49 55 55 52 44 51 50 48 45 44 50 47 38 31 28 33 33 29 22 19 2 12 11 9 7 13 14 7 14 8 3 3 4 5 5 4 5 3 4 9 11 10 6 1 3 8 7 5 4 8 34 50 53
61 52 49 60 51 49 49 53 50 50 54 56 58 49 35 29 27 30 32 27 17 8 5 11 9 14 18 19 16 27 4 9 8 5 2 2 3 3 5 5 4 5 8 4 13 9 5 15 23 32 29 45 47 57
62 59 55 51 59 50 49 50 52 50 54 58 64 55 44 33 27 26 28 31 23 11 8 12 13 17 14 16 17 13 8 8 9 4 7 3 5 2 5 8 2 6 6 4 6 4 20 56 18 23 48 51 46 50
64 61 59 56 54 60 51 49 52 51 59 62 50 56 49 40 32 22 19 22 33 11 9 5 13 17 19 23 22 19 10 10 14 6 3 4 4 11 4 1 3 3 5 5 11 12 49 12 44 62 60 53 58 59
64 62 62 56 55 57 57 51 54 58 58 55 58 65 57 48 36 26 18 17 26 10 7 8 9 9 10 16 21 30 25 23 6 5 2 5 5 4 2 2 5 4 3 3 6 23 11 50 63 55 53 59 53 61
61 62 59 58 51 58 52 57 54 56 62 58 59 59 53 55 42 33 11 20 24 19 5 2 5 4 12 11 14 17 22 25 14 11 8 7 4 2 4 5 10 7 9 9 13 37 50 38 41 38 52 51 52 52
56 57 58 57 54 59 56 62 55 66 59 55 55 58 55 42 40 28 10 6 31 20 5 5 4 6 14 14 11 12 17 9 9 7 7 5 5 8 4 6 11 16 18 7 13 39 15 27 37 51 50 50 47 45
52 54 54 53 53 56 55 63 57 84 64 60 58 51 50 45 38 29 20 5 24 20 5 6 2 4 14 8 8 10 10 9 9 2 3 5 4 3 5 9 7 13 15 5 26 25 29 39 46 51 50 56 59 58
46 51 49 43 48 55 47 46 67 74 75 71 63 53 47 40 26 20 21 16 27 8 5 5 9 6 16 7 9 6 6 2 3 2 4 5 2 7 10 11 1 9 12 24 31 28 33 43 52 57 58 58 62 68
34 40 38 37 34 47 25 62 93 94 82 76 70 24 11 24 22 28 21 16 15 7 7 5 13 6 16 8 5 8 6 4 2 6 5 3 6 10 16 8 3 4 11 21 36 51 54 59 59 63 60 56 57 61
30 34 33 32 31 38 38 86 103 103 87 63 16 9 30 46 36 10 12 9 8 3 10 10 15 10 21 7 6 7 5 2 4 7 7 4 6 10 25 15 7 6 10 16 23 29 34 42 55 62 65 59 58 59
34 26 30 31 31 43 91 96 92 80 44 32 29 44 42 14 6 7 4 3 3 10 12 14 11 7 14 10 10 9 6 3 6 2 5 5 7 33 29 18 9 4 10 15 22 28 33 39 45 51 57 61 58 55
27 33 36 36 53 84 94 89 75 60 58 69 17 12 10 4 5 10 10 6 3 11 19 14 6 11 10 6 11 5 6 8 5 4 7 7 13 39 26 17 8 3 11 18 22 27 34 41 45 50 56 57 56 52
35 29 37 44 89 93 84 71 66 74 35 9 8 8 6 2 7 8 9 9 9 10 37 32 13 7 7 5 4 8 5 5 5 1 10 5 43 37 25 15 8 6 10 17 24 31 37 42 47 50 52 56 58 56
38 40 89 86 90 88 70 65 57 38 10 9 8 7 5 3 4 5 11 8 8 30 39 20 12 6 2 6 1 8 7 6 9 9 6 35 30 28 31 31 24 18 16 18 23 28 36 44 49 51 54 56 56 51
59 76 85 79 71 62 62 56 43 21 9 7 7 9 7 5 1 8 20 14 25 44 22 6 5 6 2 7 7 12 13 11 7 7 44 32 19 14 14 14 13 16 21 22 27 32 38 42 47 52 54 53 52 49
72 63 63 62 61 53 53 47 23 9 6 6 3 7 12 2 7 10 18 20 44 36 5 8 8 11 5 5 4 6 9 7 12 33 40 21 17 17 17 19 18 20 21 25 33 38 44 49 51 53 52 49 47 45
62 52 51 50 48 46 40 15 10 6 4 5 7 14 23 3 14 20 22 36 33 16 15 8 16 5 10 12 7 8 25 17 15 19 20 25 30 26 26 32 36 35 36 38 40 42 46 50 52 51 50 47 43 39
43 46 44 49 46 27 9 7 7 5 2 5 6 24 16 6 10 15 24 45 14 16 16 11 7 5 7 16 18 14 16 27 33 39 46 46 48 50 51 53 50 47 49 47 46 47 48 49 51 50 47 43 37 33
35 41 41 40 32 9 8 8 9 6 6 6 6 16 10 7 15 18 21 42 18 13 3 1 9 13 13 17 21 38 48 51 53 59 68 68 65 63 58 50 51 54 53 56 55 52 51 50 48 46 44 39 33 27
41 40 32 39 23 9 7 9 7 6 11 6 16 14 6 16 14 14 23 30 14 8 6 23 35 49 50 53 56 61 65 66 65 64 66 67 63 61 60 58 54 56 61 62 60 55 50 47 44 43 39 32 27 22
35 37 34 18 6 7 7 6 10 13 5 11 13 9 6 5 7 9 15 13 12 35 44 60 65 65 66 68 68 65 62 62 63 65 69 70 69 64 60 59 59 62 64 65 63 57 49 47 44 39 33 27 21 16
30 16 8 6 6 4 6 12 4 7 5 5 8 3 3 5 7 16 8 15 27 61 65 69 72 70 70 69 67 61 57 61 67 71 74 75 72 65 64 64 63 65 68 69 63 58 51 46 42 35 29 25 20 18
18 11 5 4 5 6 13 5 6 8 8 5 5 2 5 6 13 3 6 11 42 48 52 53 49 50 52 52 51 39 45 57 65 66 63 64 65 73 76 78 74 72 68 65 61 53 47 44 37 32 29 26 26 25
11 9 7 1 8 8 6 3 5 5 5 5 5 6 4 7 5 6 7 15 43 51 49 44 44 44 46 46 42 41 54 60 60 64 67 62 70 78 76 63 54 48 43 48 47 43 42 39 35 33 32 31 33 33
9 17 16 18 5 10 11 9 11 12 8 5 10 3 6 5 5 11 7 28 36 27 21 24 29 32 33 35 44 52 56 57 57 62 63 59 54 47 46 41 36 31 26 32 33 35 36 38 38 36 36 37 36 37
9 12 14 14 13 17 7 6 9 6 9 11 8 7 6 5 11 10 26 36 35 30 23 25 29 35 42 47 50 53 55 54 54 54 52 43 35 32 32 32 29 23 18 19 25 28 33 37 38 39 42 42 39 38
13 33 17 28 14 14 11 6 10 15 9 15 25 10 18 18 13 15 21 20 24 29 34 41 42 44 46 47 51 50 48 47 45 41 31 23 22 21 18 15 13 11 9 15 20 24 28 33 39 44 46 47 47 43
17 27 35 9 8 11 22 15 15 21 21 34 12 10 12 24 48 46 44 43 46 47 50 48 49 49 53 51 48 43 40 36 32 23 16 17 18 13 7 3 5 9 16 22 22 24 28 35 42 46 49 50 50 48
18 43 14 14 15 15 26 35 19 34 41 37 33 28 36 53 51 50 52 57 59 59 54 55 58 59 52 47 40 35 31 26 21 15 9 11 12 9 4 6 10 17 23 30 38 41 40 45 51 54 55 54 52 50
25 36 10 14 10 22 32 40 32 25 33 34 46 43 54 40 57 62 61 63 61 57 57 60 60 53 43 36 29 25 18 15 13 12 7 8 6 6 10 15 19 23 28 33 42 48 54 57 58 58 56 55 53 49
19 21 9 11 6 8 17 21 18 18 17 19 19 28 24 19 24 44 55 50 53 57 53 50 48 36 29 25 20 15 12 7 12 9 5 4 9 14 18 23 28 33 39 45 50 54 56 59 60 57 57 56 53 48
6 8 6 3 5 8 14 14 14 5 11 11 17 21 26 18 20 28 49 49 48 47 43 35 27 24 18 16 14 13 12 10 10 9 13 20 21 26 31 35 39 43 47 53 55 56 56 57 58 57 55 53 48 42
Wind_Direction_850mb
266 270 250 254 255 262 244 243 232 232 229 221 221 218 212 214 208 214 233 236 216 168 167 192 209 164 155 174 150 142 113 198 114 177 179 187 218 207 242 195 179 172 152 208 85 241 301 194 127 7 292 330 334 329
265 260 267 245 253 251 249 239 234 233 229 228 213 212 210 210 208 212 223 224 202 210 153 189 187 199 190 172 143 162 144 166 162 103 191 157 215 182 142 283 199 254 187 208 188 222 47 339 281 327 342 324 323 319
260 254 252 256 244 251 252 238 235 233 224 227 206 204 204 204 205 207 217 214 204 215 231 218 206 214 183 175 179 134 178 168 168 134 133 178 219 239 219 240 284 278 190 221 4 281 339 320 334 345 338 329 326 322
255 253 245 247 248 241 249 244 229 224 226 223 208 203 202 203 206 202 208 208 201 181 194 196 222 232 229 218 209 206 187 160 151 130 139 145 185 186 225 196 313 297 307 287 278 316 334 109 329 324 324 321 321 323
252 248 244 241 243 234 246 241 222 224 218 199 204 197 197 198 202 196 188 191 189 197 165 146 161 215 257 248 218 213 201 200 176 132 146 250 232 117 14 216 228 334 71 13 267 323 291 290 313 326 320 326 329 328
244 240 240 236 235 229 234 232 222 218 215 197 205 194 192 189 190 186 189 218 206 203 198 94 160 27 113 114 147 141 195 211 212 173 207 233 252 212 117 230 191 338 309 270 266 306 307 317 328 332 333 329 322 322
234 236 231 229 228 227 232 229 221 212 198 189 184 189 191 183 183 175 164 187 198 185 213 77 42 134 129 121 127 165 172 184 193 193 220 213 210 208 158 212 221 313 333 326 333 332 334 336 327 341 345 343 337 337
226 226 225 223 226 223 227 218 217 190 190 181 170 167 170 177 189 204 189 81 173 179 222 108 282 165 165 141 122 144 157 174 184 241 218 203 200 305 247 218 283 337 352 119 345 342 321 331 346 355 354 353 353 351
216 218 213 221 213 222 235 217 195 173 165 161 156 156 158 162 171 193 200 187 174 176 181 132 137 203 160 128 119 128 142 99 218 168 235 172 284 226 201 180 6 354 350 328 350 354 352 351 351 356 355 355 352 349
202 196 202 208 200 223 216 202 176 159 149 147 147 137 138 156 159 159 146 161 167 218 221 157 133 135 165 141 97 131 163 173 171 250 157 141 248 231 180 159 135 23 3 349 348 359 355 357 353 353 353 353 349 346
194 189 200 194 205 227 182 150 146 141 145 142 124 106 137 150 144 146 139 148 165 350 207 187 182 146 187 133 177 189 164 164 195 259 141 280 278 212 178 173 155 74 31 11 0 358 356 350 348 348 351 350 350 348
188 194 190 186 189 170 154 149 152 153 148 135 129 129 134 180 109 103 81 53 108 215 191 165 182 124 155 157 112 172 148 138 233 167 84 270 251 169 173 173 164 79 22 12 0 1 2 1 357 353 350 347 348 347
203 194 193 180 175 160 151 151 153 145 138 129 113 129 149 64 109 163 188 279 295 194 176 159 132 156 135 142 87 103 96 211 124 71 227 231 166 169 170 179 180 42 15 7 2 1 2 2 1 358 355 350 346 346
177 176 161 170 159 153 152 146 141 137 137 108 122 98 124 161 252 185 184 187 183 163 153 146 117 138 127 93 137 108 230 83 58 251 235 226 181 187 191 204 226 279 328 350 359 1 1 359 359 358 354 351 346 345
173 163 161 147 146 149 147 150 155 155 85 94 106 150 179 166 146 144 169 139 130 155 151 114 86 111 71 95 75 91 42 247 209 227 220 165 168 189 213 232 252 279 301 327 342 350 355 355 353 352 350 349 346 342
129 129 134 134 140 144 150 153 156 148 63 79 95 94 101 76 84 178 170 151 149 155 141 119 112 83 191 146 146 204 138 220 252 215 162 155 162 186 210 231 264 280 290 314 335 342 345 347 347 346 345 345 341 339
118 120 132 133 141 141 148 147 118 70 76 105 91 166 150 154 173 158 164 166 159 163 173 129 131 205 97 87 223 201 198 218 125 143 173 201 260 270 279 262 281 297 299 313 329 334 337 337 338 337 337 338 337 335
118 127 142 153 150 141 134 110 84 92 107 158 154 179 188 146 163 161 168 165 165 199 157 194 134 132 178 160 243 230 223 214 254 271 242 252 290 304 294 308 308 303 303 311 314 317 320 323 326 328 328 330 330 328
143 146 154 156 155 123 87 81 82 96 142 198 194 162 173 166 181 179 177 179 172 173 153 155 87 172 219 211 209 205 270 295 304 313 310 308 306 306 306 303 302 297 299 300 299 301 306 311 314 317 318 320 320 317
143 160 166 163 154 90 90 103 142 158 170 173 158 157 147 155 163 169 173 182 183 166 130 203 212 219 221 254 286 294 300 301 300 300 302 304 303 304 303 300 294 294 292 290 292 292 297 298 302 306 308 310 310 304
118 137 156 176 146 91 110 142 140 116 132 121 141 144 118 140 148 161 172 174 188 215 230 233 252 263 269 278 283 284 285 288 292 294 293 294 297 296 294 293 293 291 289 290 291 291 288 293 297 297 295 296 294 285
130 121 122 128 123 121 107 122 125 124 124 139 136 134 140 170 166 167 171 182 230 240 240 250 258 267 274 279 287 291 294 298 296 297 299 296 291 289 289 289 285 283 281 281 282 281 282 286 286 284 280 277 270 259
148 145 146 137 121 90 115 132 118 117 120 167 151 119 223 194 179 159 207 223 240 246 251 257 265 272 276 283 288 292 293 292 293 294 290 287 281 278 281 286 287 284 281 278 276 277 276 274 270 264 257 249 236 213
171 175 175 127 103 148 146 149 137 122 122 115 120 254 272 171 152 151 251 246 244 255 260 267 274 277 278 279 279 290 295 294 294 293 290 284 282 285 293 293 289 282 274 271 265 262 258 252 248 240 232 222 206 190
155 194 188 291 144 110 83 55 11 72 152 175 130 273 262 144 154 203 237 262 261 272 284 280 280 282 277 280 280 287 291 291 291 292 293 296 300 297 296 295 289 281 263 249 245 242 238 230 225 218 210 200 193 178
184 190 182 191 175 159 180 150 186 188 141 158 221 145 121 127 156 235 228 251 275 290 296 301 301 297 290 288 290 291 292 293 292 294 300 303 300 295 297 298 294 290 276 250 236 229 220 213 207 198 191 185 181 173
199 225 175 176 167 142 95 99 143 137 167 186 180 154 118 163 236 244 238 259 269 272 275 278 289 291 287 286 288 291 294 295 296 299 304 302 299 293 289 290 290 297 282 247 223 214 210 200 191 184 177 170 168 165
207 182 166 175 165 169 137 156 168 192 202 177 136 175 179 195 226 223 255 266 268 277 283 291 291 288 284 284 289 292 296 299 299 303 303 304 311 310 301 287 270 261 230 197 191 187 189 187 176 170 167 160 154 152
180 171 155 139 145 195 201 182 200 215 191 173 173 195 222 222 246 259 273 279 281 281 282 286 290 288 284 287 290 295 298 296 300 293 301 311 322 318 304 259 201 178 166 162 157 159 160 165 163 159 154 150 146 144
188 170 153 161 164 205 214 200 217 210 199 205 219 234 246 251 255 263 270 274 276 281 285 284 284 282 284 286 290 292 290 292 276 261 281 320 327 309 237 177 166 157 155 156 153 151 150 150 149 150 148 146 144 142
163 179 155 177 224 214 216 215 216 211 210 222 229 236 247 261 264 269 272 273 274 276 276 276 276 278 280 282 282 278 276 271 231 229 267 305 308 190 170 157 155 152 149 149 145 144 146 148 146 145 144 141 139 138
174 182 185 201 233 202 192 191 197 204 218 227 235 233 244 255 266 276 272 273 273 272 274 275 276 277 271 265 257 252 247 198 200 226 251 232 166 150 145 144 142 143 144 144 143 143 144 143 141 141 141 139 135 133
174 193 195 178 157 180 182 174 187 221 229 229 224 222 224 232 243 266 270 269 270 275 275 272 261 249 238 218 206 202 181 176 173 166 147 137 136 138 137 136 138 140 141 139 137 138 140 140 140 139 137 135 133 131